This demonstration page uses our WeatherBlox Daily Observations layout. Learn more.

Left ArrowRight Arrow

41.86663, -103.66717

Hourly Observations for April 24, 2016

Temp ( °F °C ) Dew Point ( °F °C ) Humidity (%) Winds ( mph kmh ) Pressure ( in mb ) Visibility ( mi km ) Precip ( " mm )
12:53 am 00:53 Clear 48 8.9 38 3.3 68 68 WNW 10 17 29.57 1001 10 16 N/A
1:53 am 01:53 Clear 42 5.6 36 2.2 79 79 W 6 9 29.57 1001 10 16 N/A
2:53 am 02:53 Clear 45 7.2 34 1.1 66 66 W 9 15 29.55 1001 10 16 N/A
3:53 am 03:53 Clear 43 6.1 33 0.6 68 68 WNW 7 11 29.54 1000 10 16 N/A
4:53 am 04:53 Clear 41 5 33 0.6 73 73 W 6 9 29.53 1000 10 16 N/A
5:53 am 05:53 Clear 35 1.7 30 -1.1 82 82 E 3 6 29.54 1000 10 16 N/A
6:53 am 06:53 Sunny 43 6.1 34 1.1 71 71 NNW 7 11 29.52 1000 10 16 N/A
7:53 am 07:53 Sunny 48 8.9 33 0.6 56 56 WNW 8 13 29.51 999 10 16 N/A
8:53 am 08:53 Sunny 59 15 31 -0.6 35 35 WSW 23 37 29.46 998 10 16 N/A
9:53 am 09:53 Cloudy 55 12.8 34 1.1 45 45 WSW 31 50 29.48 998 10 16 N/A
10:53 am 10:53 Cloudy 56 13.3 38 3.3 51 51 WSW 25 41 29.50 999 10 16 N/A
11:53 am 11:53 Cloudy with Light Rain 52 11.1 43 6.1 72 72 WSW 20 31 29.50 999 8 13 0.01 0.25
12:53 pm 12:53 Cloudy with Light Rain 51 10.6 38 3.3 61 61 W 22 35 29.54 1001 10 16 N/A
1:53 pm 13:53 Cloudy with Light Rain 47 8.3 40 4.4 77 77 W 23 37 29.61 1003 10 16 0.01 0.25
2:53 pm 14:53 Cloudy 48 8.9 41 5 77 77 W 18 30 29.60 1002 10 16 0.02 0.51
3:53 pm 15:53 Cloudy 52 11.1 38 3.3 59 59 WNW 24 39 29.59 1002 10 16 N/A
4:53 pm 16:53 Mostly Sunny 51 10.6 36 2.2 56 56 WNW 26 43 29.62 1003 10 16 N/A
5:53 pm 17:53 Partly Cloudy 48 8.9 35 1.7 61 61 WNW 20 31 29.67 1005 10 16 N/A
6:53 pm 18:53 Cloudy with Light Rain 45 7.2 37 2.8 74 74 WNW 16 26 29.68 1005 10 16 N/A
7:53 pm 19:53 Cloudy with Light Rain 45 7.2 36 2.2 71 71 WNW 14 22 29.70 1006 10 16 N/A
8:53 pm 20:53 Cloudy 45 7.2 36 2.2 71 71 WNW 10 17 29.69 1005 10 16 0.01 0.25
9:53 pm 21:53 Cloudy 43 6.1 35 1.7 74 74 WNW 13 20 29.72 1006 10 16 N/A
10:53 pm 22:53 Mostly Clear 42 5.6 35 1.7 76 76 WNW 12 19 29.73 1007 10 16 N/A
11:53 pm 23:53 Clear 37 2.8 33 0.6 86 86 WNW 5 7 29.75 1007 10 16 N/A

Powered by AerisWeather